Location: Chacón
(10.5789°N, 66.9317°W)
Time: 04:56:37
(UTC+00:00)

Cosmos 962 Rocket - Pass Details

Date: 21 October 2025
Orbit: 950 x 998 km, 82.9° (Epoch: 17 November)

Event Time Altitude Azimuth Distance (km) Brightness Sun altitude
Exits shadow 07:36:17 27° 58° (ENE) 1,760 6.1 -40.0°
Maximum altitude 07:37:52 31° 85° (E) 1,637 6.0 -39.6°
Drops below altitude 10° 07:43:12 10° 145° (SE) 2,696 7.2 -38.3°
Sets 07:45:59 0° 155° (SSE) 3,635 7.8 -37.6°
